Other Public Products
Issued by NWS Charleston, SC

Current Version | Previous Version | Graphics & Text | Print | Product List | Glossary On
Versions: 1 2 3 4 5 6 7 8 9 10 11 12 13 14 15 16 17 18 19 20 21 22 23 24 25 26 27 28 29 30 31 32 33 34 35 36 37 38 39 40 41 42 43 44 45 46 47 48 49 50
000 FPUS82 KCHS 262227 OPUCHS TEST...KCHS/KSAV Gateway Observations...TEST National Weather Service Charleston SC 600 PM EDT SAT MAY 26 2018 NOTE: "fair" indicates few or no clouds below 12,000 feet with no significant weather and/or obstructions to visibility. SCZ050-WAZ558-NCZ071-TXZ119-213-PAZ071-DCZ001-FLZ074-172-MI076- NYZ176-178-MAZ016-IL014-TNZ027-NJZ106-GAZ044-MD014-262300- ...Gateway Observations for Charleston International... CITY SKY/WX TMP DP RH WIND PRES REMARKS Chas Airport PTSUNNY 82 69 64 S13 29.94S Seattle PTSUNNY 67 42 40 VRB5 30.18S Charlotte LGT RAIN 81 72 74 SW7 29.90S Dallas DFW MOSUNNY 96 64 34 S9 29.73F HX 98 Dallas Love MOSUNNY 96 67 38 SE10 29.75F HX 100 Philladelphia TSTM 73 66 78 SE18G26 29.81F Wash National CLOUDY 83 70 64 S7 29.83S Baltimore LGT RAIN 76 71 85 SW5 29.81F Miami LGT RAIN 74 73 97 E18 29.86F Detroit PTSUNNY 76 65 68 SE8 29.78F Newark PTSUNNY 90 64 42 W10 29.77S HX 91 Laguardia PTSUNNY 86 67 52 E16 29.77S J F K PTSUNNY 74 67 78 S14 29.79F Boston Logan CLOUDY 76 56 49 NE16G24 29.78R Ft. Lauderdale LGT RAIN 74 73 97 E16 29.86F Chicago O`Hare FAIR 89 59 36 W9 29.73F Chicago Midway FAIR 88 61 40 E7 29.73F Houston Bush FAIR 92 72 51 SW7 29.76F HX 99 Houston Hobby PTSUNNY 91 74 57 SW9 29.75F THUNDER HX 100 Nashville PTSUNNY 77 69 76 W5 29.86F Atlanta PTSUNNY 83 66 56 S12 29.90R $$ GAZ044-118-TXZ119-213-NCZ071-DCZ001-MDZ014-506-PAZ021-071-NJZ106- NYZ176-178-MAZ106-OHZ011-021-055-MIZ076-KYZ091-ILZ014-INZ047- MNZ060-ONZ431-262300- ...Gateway Observations for Savannah International... CITY SKY/WX TMP DP RH WIND PRES REMARKS Savannah Arpt PTSUNNY 83 70 64 SE16 29.93S Atlanta PTSUNNY 83 66 56 S12 29.90R Charlotte LGT RAIN 81 72 74 SW7 29.90S Dallas DFW MOSUNNY 96 64 34 S9 29.73F HX 98 Houston Bush FAIR 92 72 51 SW7 29.76F HX 99 Wash National CLOUDY 83 70 64 S7 29.83S Wash Dulles PTSUNNY 81 75 82 S3 29.84R Baltimore LGT RAIN 76 71 85 SW5 29.81F Philadelphia TSTM 73 66 78 SE18G26 29.81F Newark PTSUNNY 90 64 42 W10 29.77S HX 91 Laguardia PTSUNNY 86 67 52 E16 29.77S J F K PTSUNNY 74 67 78 S14 29.79F Boston CLOUDY 76 56 49 NE16G24 29.78R Pittsburg PTSUNNY 77 66 68 SE3 29.84S Akron PTSUNNY 77 67 71 SE10 29.82F Cleveland CLOUDY 74 64 71 N8 29.82R THUNDER Cincinnati FAIR 80 70 71 SW5 29.81S Columbus PTSUNNY 75 68 78 MISG 29.82R THUNDER Detroit PTSUNNY 76 65 68 SE8 29.78F Chicago O`Hare FAIR 89 59 36 W9 29.73F Minneapolis FAIR 93 55 27 W13G20 29.69S HX 91 Indianapolis PTSUNNY 88 64 44 W14 29.77F Toronto Canada PTSUNNY 75 61 60 N24 29.79R $$

USA.gov is the U.S. government's official web portal to all federal, state and local government web resources and services.